Location: Praha
(50.0830°N, 14.4670°E)
Time: 15:40:36
(UTC+01:00)

ISS - Pass Details

Date: 03 December 2018
Orbit: 401 x 408 km, 51.6° (Epoch: 12 December)

Event Time Altitude Azimuth Distance (km) Brightness Sun altitude
Rises 17:06:38 0° 260° (W) 2,315 1.9 -9.9°
Reaches altitude 10° 17:08:43 10° 262° (W) 1,456 0.4 -10.2°
Maximum altitude 17:11:58 76° 348° (NNW) 418 -3.8 -10.7°
Enters shadow 17:14:17 18° 73° (ENE) 1,075 -2.3 -11.1°
